Location: Lecco
(45.8566°N, 9.3977°E)
Time: 03:58:09
(UTC+02:00)

Transit 4A - Pass Details

Date: 14 August 2020
Orbit: 863 x 982 km, 66.8° (Epoch: 23 September)

Event Time Altitude Azimuth Distance (km) Brightness Sun altitude
Rises 13:26:01 0° 299° (WNW) 3,577 10.8 58.3°
Reaches altitude 10° 13:31:01 10° 335° (NNW) 2,670 10.1 58.3°
Maximum altitude 13:32:39 11° 350° (N) 2,608 10.1 58.2°
Drops below altitude 10° 13:34:17 10° 5° (N) 2,691 10.1 58.2°
Sets 13:39:25 0° 41° (NE) 3,666 10.7 58.2°
